Preview of NWS' New Version of Forecast
This preview is not operational and should not be used for support decisions.

Regional Weather Roundup (RWR)

Issued by National Weather Service (NWS)

                            
000
ASUS43 KBIS 222102
RWRND 

NORTH DAKOTA REGIONAL WEATHER ROUNDUP
NATIONAL WEATHER SERVICE BISMARCK ND
400 PM CDT MON JUL 22 2019

NOTE: "FAIR" INDICATES FEW OR NO CLOUDS BELOW 12,000 FEET WITH NO
SIGNIFICANT WEATHER AND/OR OBSTRUCTIONS TO VISIBILITY.


NDZ001>003-009>011-017-222200-
NORTHWEST NORTH DAKOTA
  
CITY           SKY/WX    TMP DP  RH WIND       PRES   REMARKS
WILLISTON      SUNNY     84  52  33 SE12      30.26F                  
MINOT          SUNNY     80  51  36 S6        30.27F                  
MINOT AFB      SUNNY     80  55  41 CALM      30.26S                  
$$
 
NDZ018>021-031>035-040>046-222200-
SOUTHWEST NORTH DAKOTA
  
CITY           SKY/WX    TMP DP  RH WIND       PRES   REMARKS
BISMARCK       SUNNY     77  50  38 E3        30.30F                  
DICKINSON      MOSUNNY   79  52  38 VRB7G17   30.28F                  
GARRISON         N/A     78  52  40 S6        30.28F                  
HETTINGER ARPT MOSUNNY   76  54  46 SE12      30.31S                  
$$
 
NDZ004>008-012>016-024-026-027-054-222200-
NORTHEAST NORTH DAKOTA
  
CITY           SKY/WX    TMP DP  RH WIND       PRES   REMARKS
GRAND FORKS    MOSUNNY   81  55  40 NW7       30.23F                  
GRND FRKS AFB  MOSUNNY   79  55  42 N9        30.25F                  
DEVILS LAKE    MOSUNNY   77  54  44 NW7       30.28F                  
$$
 
NDZ022-023-025-028>030-036>039-047>053-222200-
SOUTHEAST NORTH DAKOTA
  
CITY           SKY/WX    TMP DP  RH WIND       PRES   REMARKS
FARGO          MOSUNNY   78  52  40 VRB6      30.26F                  
JAMESTOWN      SUNNY     76  57  51 CALM      30.29F                  
$$